Weather History for Jamestown, ND

Change the Weather History Date:

Wednesday, March 6, 2013

  Actual Average Record
Temperature  
Mean Temperature 9 °F 23 °F  
Max Temperature 18 °F 32 °F 59 °F (2000)
Min Temperature -1 °F 14 °F -18 °F (1932)
Degree Days  
Heating Degree Days 56 42  
Month to date heating degree days 292 260  
Since 1 July heating degree days 7039 7019  
Cooling Degree Days 0 0  
Month to date cooling degree days 0 0  
Year to date cooling degree days 0 0  
Moisture  
Dew Point 6 °F    
Average Humidity 82    
Maximum Humidity 91    
Minimum Humidity 73    
Precipitation  
Precipitation T in 0.03 in 0.32 in (1983)
Month to date precipitation 0.12 0.14  
Year to date precipitation 0.61 0.99  
Sea Level Pressure  
Sea Level Pressure 30.39 in    
Wind  
Wind Speed 7 mph (SE)    
Max Wind Speed 20 mph    
Max Gust Speed 22 mph    
Visibility 7 miles    
Events Snow    
T = Trace of Precipitation, MM = Missing Value Source: NWS Daily Summary

Daily Weather History Graph

Daily Weather History Graph

Search for Another Location

Airport:

Trip Planner

Search our weather history database for the weather conditions in past years. The results will help you decide how hot, cold, wet, or windy it might be!

Date:

Astronomy

Mar. 06, 2013 Rise Set
Actual Time 7:04 AM CST 6:27 PM CST
Civil Twilight 6:34 AM CST 6:58 PM CST
Nautical Twilight 5:59 AM CST 7:33 PM CST
Astronomical Twilight 5:23 AM CST 8:09 PM CST
Moon 3:31 AM CST (3/6) 12:55 PM CST (3/6)
Length of Visible Light 12h 24m
Length of Day
11h 23m
Waning Crescent, 29% of the Moon is Illuminated
Mar 6
Waning Crescent
Mar 11
New
Mar 19
First Quarter
Mar 27
Full
Apr 2
Last Quarter

Hourly Weather History & Observations

Time (CST) Temp. Windchill Dew Point Humidity Pressure Visibility Wind Dir Wind Speed Gust Speed Precip Events Conditions
12:56 AM 9.0 °F 0.6 °F 5.0 °F 84% 30.48 in 7.0 mi West 4.6 mph - 0.00 in   Overcast
1:56 AM 6.1 °F -0.9 °F 3.0 °F 87% 30.48 in 7.0 mi WNW 3.5 mph - N/A   Overcast
2:56 AM 1.0 °F -6.7 °F -2.9 °F 83% 30.48 in 6.0 mi NW 3.5 mph - N/A   Overcast
3:30 AM 1.4 °F - -2.2 °F 85% 30.36 in 8.0 mi Calm Calm - N/A   Overcast
3:56 AM 3.0 °F - -0.9 °F 84% 30.47 in 10.0 mi Calm Calm - N/A   Overcast
4:56 AM 1.9 °F - -2.0 °F 83% 30.49 in 4.0 mi Calm Calm - 0.00 in   Overcast
5:56 AM 1.9 °F - -2.9 °F 80% 30.50 in 5.0 mi Calm Calm - 0.00 in   Haze
6:56 AM 3.0 °F - -0.9 °F 84% 30.50 in 4.0 mi Calm Calm - 0.00 in Snow Light Snow
7:19 AM 5.0 °F - 1.4 °F 85% 30.39 in 2.5 mi Calm Calm - 0.00 in Snow Light Snow
7:53 AM 3.2 °F - 1.4 °F 92% 30.39 in 1.5 mi Calm Calm - 0.00 in Snow Light Snow
8:08 AM 3.2 °F - -0.4 °F 85% 30.38 in 2.0 mi Calm Calm - 0.00 in Snow Light Snow
8:22 AM 3.2 °F - -0.4 °F 85% 30.38 in 2.0 mi Calm Calm - 0.00 in Snow Light Snow
8:35 AM 3.2 °F - 1.4 °F 92% 30.38 in 4.0 mi Calm Calm - 0.00 in   Mostly Cloudy
8:49 AM 3.2 °F - 1.4 °F 92% 30.38 in 10.0 mi Calm Calm - 0.00 in   Scattered Clouds
8:56 AM 3.0 °F - 1.0 °F 91% 30.50 in 10.0 mi Calm Calm - 0.00 in   Partly Cloudy
9:56 AM 6.1 °F - 1.9 °F 83% 30.48 in 10.0 mi Calm Calm - N/A   Clear
10:12 AM 6.8 °F -0.1 °F 1.4 °F 79% 30.37 in 10.0 mi East 3.5 mph - N/A   Partly Cloudy
10:56 AM 12.0 °F 1.5 °F 7.0 °F 80% 30.47 in 10.0 mi SE 6.9 mph - 0.00 in Snow Light Snow
11:13 AM 12.2 °F 4.3 °F 8.6 °F 85% 30.36 in 2.5 mi SSE 4.6 mph - 0.00 in Snow Light Snow
11:30 AM 14.0 °F 5.1 °F 8.6 °F 79% 30.35 in 4.0 mi SE 5.8 mph - 0.00 in Snow Light Snow
11:56 AM 15.1 °F 3.3 °F 9.0 °F 77% 30.45 in 3.0 mi South 9.2 mph - 0.00 in Snow Light Snow
12:56 PM 16.0 °F 5.3 °F 10.9 °F 81% 30.42 in 5.0 mi SSE 8.1 mph - 0.00 in Snow Light Snow
1:56 PM 16.0 °F 3.6 °F 10.0 °F 77% 30.40 in 5.0 mi SE 10.4 mph - 0.00 in Snow Light Snow
2:16 PM 17.6 °F 8.2 °F 10.4 °F 73% 30.28 in 2.5 mi SE 6.9 mph - 0.00 in Snow Light Snow
2:25 PM 17.6 °F 5.7 °F 12.2 °F 79% 30.28 in 4.0 mi SE 10.4 mph - 0.00 in Snow Light Snow
2:56 PM 18.0 °F 6.1 °F 12.0 °F 78% 30.38 in 4.0 mi SE 10.4 mph - 0.00 in Snow Light Snow
3:56 PM 18.0 °F 3.6 °F 12.9 °F 81% 30.37 in 7.0 mi SSE 15.0 mph - 0.00 in   Overcast
4:56 PM 18.0 °F 5.4 °F 12.0 °F 78% 30.35 in 10.0 mi SE 11.5 mph - N/A   Overcast
5:56 PM 17.1 °F 3.6 °F 12.0 °F 81% 30.33 in 10.0 mi SE 12.7 mph - N/A   Overcast
6:56 PM 16.0 °F 2.9 °F 10.9 °F 81% 30.33 in 10.0 mi ESE 11.5 mph - 0.00 in   Overcast
7:56 PM 16.0 °F 2.9 °F 10.9 °F 81% 30.35 in 10.0 mi SE 11.5 mph - 0.00 in   Overcast
8:45 PM 15.8 °F 0.9 °F 12.2 °F 86% 30.23 in 10.0 mi SE 15.0 mph - 0.00 in   Overcast
8:56 PM 16.0 °F 2.3 °F 12.0 °F 84% 30.33 in 10.0 mi SE 12.7 mph - 0.00 in   Overcast
9:56 PM 15.1 °F -0.1 °F 12.0 °F 88% 30.31 in 10.0 mi SE 15.0 mph - N/A   Overcast
10:56 PM 15.1 °F 1.1 °F 12.0 °F 88% 30.32 in 9.0 mi SE 12.7 mph - N/A   Overcast
11:56 PM 15.1 °F -0.1 °F 12.0 °F 88% 30.30 in 7.0 mi SE 15.0 mph - 0.00 in   Overcast